Time,TemperatureF,DewpointF,PressureIn,WindDirection,WindDirectionDegrees,WindSpeedMPH,WindSpeedGustMPH,Humidity,HourlyPrecipIn,Conditions,Clouds,dailyrainin,SoftwareType,DateUTC
2013-02-18 22:16:00,46.7,40.5,29.92,SW,223,8.0,8.0,79,0.00,,,0.00,Wunderground v.1.15,2013-02-19 06:16:00,
2013-02-18 22:21:00,46.7,40.5,29.92,SW,233,11.0,17.0,79,0.00,,,0.00,Wunderground v.1.15,2013-02-19 06:21:00,
2013-02-18 22:26:00,46.7,40.5,29.92,SW,214,8.0,11.0,79,0.00,,,0.00,Wunderground v.1.15,2013-02-19 06:26:00,
2013-02-18 22:31:00,46.7,40.5,29.92,SSW,206,5.0,13.0,79,0.00,,,0.00,Wunderground v.1.15,2013-02-19 06:31:00,
2013-02-18 22:36:00,46.7,40.5,29.92,SSW,211,11.0,13.0,79,0.00,,,0.00,Wunderground v.1.15,2013-02-19 06:36:00,
2013-02-18 22:41:00,46.8,40.3,29.92,SSW,209,7.0,17.0,78,0.00,,,0.00,Wunderground v.1.15,2013-02-19 06:41:00,
2013-02-18 22:46:00,46.8,40.3,29.92,SSW,194,3.0,12.0,78,0.00,,,0.00,Wunderground v.1.15,2013-02-19 06:46:00,
2013-02-18 22:51:00,46.8,40.3,29.92,SSW,209,9.0,16.0,78,0.00,,,0.00,Wunderground v.1.15,2013-02-19 06:51:00,
2013-02-18 22:57:00,46.6,40.1,29.92,SSW,205,11.0,11.0,78,0.00,,,0.00,Wunderground v.1.15,2013-02-19 06:57:00,
2013-02-18 23:02:00,46.5,40.0,29.92,SSW,207,7.0,10.0,78,0.00,,,0.00,Wunderground v.1.15,2013-02-19 07:02:00,
2013-02-18 23:07:00,46.3,39.8,29.92,SSW,202,3.0,10.0,78,0.00,,,0.00,Wunderground v.1.15,2013-02-19 07:07:00,
2013-02-18 23:12:00,46.3,39.8,29.92,SSW,208,7.0,12.0,78,0.00,,,0.00,Wunderground v.1.15,2013-02-19 07:12:00,
2013-02-18 23:17:00,46.2,39.7,29.92,SSW,211,2.0,12.0,78,0.00,,,0.00,Wunderground v.1.15,2013-02-19 07:17:00,
2013-02-18 23:22:00,46.2,39.7,29.92,SW,225,5.0,10.0,78,0.00,,,0.00,Wunderground v.1.15,2013-02-19 07:22:00,
2013-02-18 23:27:00,46.1,39.6,29.92,WSW,244,7.0,10.0,78,0.00,,,0.00,Wunderground v.1.15,2013-02-19 07:27:00,
2013-02-18 23:32:00,46.2,39.4,29.92,WSW,252,3.0,12.0,77,0.00,,,0.00,Wunderground v.1.15,2013-02-19 07:32:00,
2013-02-18 23:37:00,46.3,39.5,29.93,SW,233,4.0,16.0,77,0.00,,,0.00,Wunderground v.1.15,2013-02-19 07:37:00,
2013-02-18 23:42:00,46.3,39.5,29.93,SW,235,3.0,8.0,77,0.00,,,0.00,Wunderground v.1.15,2013-02-19 07:42:00,
2013-02-18 23:47:00,46.2,39.1,29.93,West,261,11.0,13.0,76,0.00,,,0.00,Wunderground v.1.15,2013-02-19 07:47:00,
2013-02-18 23:52:00,46.2,38.7,29.93,SW,235,4.0,14.0,75,0.00,,,0.00,Wunderground v.1.15,2013-02-19 07:52:00,
2013-02-18 23:57:00,46.2,38.4,29.92,SW,222,6.0,17.0,74,0.00,,,0.00,Wunderground v.1.15,2013-02-19 07:57:00,